Dewpoint
11 18 21 22 38 41 45 47 49 49 55 51 49 53 53 56 57 59 59 58 55 54 59 59 60 59 60 63 68 68 72 73 74 73 73 69 72 73 71 72 72 75 75 74
13 17 20 22 32 41 43 49 51 49 52 52 52 53 54 58 57 57 57 58 58 62 58 60 60 62 61 66 69 71 73 74 73 73 75 73 75 73 73 74 75 75 73 74
17 17 19 22 29 32 30 41 47 43 45 46 52 53 55 57 58 57 56 58 60 63 63 61 60 61 64 66 68 71 73 74 74 75 73 75 73 72 70 75 73 73 73 72
18 23 25 26 25 25 24 36 36 39 35 43 43 43 52 54 56 55 53 55 60 62 64 59 60 58 62 65 68 71 73 73 73 75 75 75 73 69 71 72 73 73 74 74
18 21 23 24 22 24 25 34 34 34 34 33 38 37 50 52 52 53 53 50 56 61 60 62 63 59 63 65 66 70 72 74 73 76 75 75 73 72 75 75 74 78 76 76
19 19 20 19 21 23 25 27 30 33 33 30 31 36 51 51 53 54 54 54 55 56 58 63 64 62 62 63 64 68 72 73 75 74 74 74 73 72 72 73 71 73 73 73
16 14 15 18 17 20 20 20 23 28 33 36 37 34 46 52 53 53 55 57 55 56 58 61 59 60 61 64 65 66 72 72 73 73 73 74 74 74 71 71 70 71 71 70
19 15 15 15 16 20 22 17 19 36 37 41 40 37 40 40 50 52 56 55 53 55 58 58 59 61 65 65 66 68 72 72 72 72 73 75 75 73 72 72 74 73 71 71
26 18 18 20 22 22 28 25 26 26 39 33 37 41 41 43 50 52 52 53 55 56 57 57 57 63 64 66 66 69 72 72 72 71 74 74 74 74 75 74 76 72 77 71
26 25 25 20 23 23 24 34 30 29 36 34 41 41 46 49 52 53 53 54 56 56 56 56 57 60 64 65 64 69 71 72 72 72 72 71 73 74 74 75 76 76 78 73
23 24 24 23 23 22 24 26 29 32 39 34 38 44 49 53 53 53 50 53 56 57 56 57 58 59 61 65 65 66 70 71 71 71 71 72 72 72 74 74 74 76 77 77
24 26 25 24 24 25 27 26 25 27 45 42 37 39 51 52 54 50 50 52 52 61 61 60 58 60 61 65 65 64 69 70 70 70 73 72 72 73 72 72 73 74 75 78
32 26 21 21 23 26 28 28 24 29 36 42 38 37 50 47 52 50 51 53 60 62 62 63 61 60 62 66 69 68 69 69 69 71 71 71 72 73 73 73 74 75 76 76
37 17 19 18 24 27 29 29 28 29 32 36 35 34 43 47 51 53 52 51 58 61 63 64 63 66 62 67 67 69 69 70 70 70 71 72 73 74 72 74 75 75 77 76
20 23 23 21 20 20 22 23 29 29 31 35 36 40 44 51 53 55 56 52 53 55 60 62 62 66 66 68 68 68 70 70 70 71 73 74 75 75 75 75 76 76 76 76
27 29 27 23 19 19 15 12 17 27 29 31 43 42 50 54 61 57 57 57 57 54 56 60 63 64 67 66 69 71 71 71 72 72 73 75 75 75 75 75 75 76 75 76
30 28 29 24 20 20 20 20 20 22 24 31 28 48 51 51 56 58 60 60 62 64 62 64 63 64 66 65 67 64 72 73 73 74 74 75 75 75 76 76 76 76 76 76
28 32 28 24 26 21 21 27 27 30 33 35 39 51 51 54 54 57 59 60 61 62 64 66 69 67 66 64 65 71 71 74 74 74 74 74 75 75 75 76 75 74 76 76
25 28 26 25 24 26 26 35 33 35 35 28 38 47 49 49 52 58 59 60 61 63 64 66 68 70 69 68 71 73 73 73 73 73 74 74 75 75 74 75 76 77 76 75
27 34 30 28 26 26 30 36 39 38 33 42 41 47 53 56 53 57 60 61 62 62 64 66 68 70 70 70 72 71 73 71 73 73 74 74 73 73 73 73 74 74 72 70
31 32 28 27 28 27 39 39 40 32 41 45 45 53 52 54 56 61 61 61 63 63 64 66 68 68 69 71 70 68 68 68 70 71 72 72 71 73 73 73 72 72 70 66
30 31 29 28 32 32 41 38 41 48 48 47 47 53 58 59 60 58 59 59 62 62 64 65 66 67 69 71 70 68 67 69 69 69 69 69 70 69 68 68 66 64 62 60
28 31 30 32 42 48 41 37 39 44 45 41 48 56 54 57 59 59 60 61 61 61 62 65 65 65 67 67 69 69 69 70 69 68 67 67 68 67 68 65 63 62 62 60
39 37 32 37 34 33 36 36 37 38 40 41 46 53 51 53 59 59 60 60 60 61 61 63 64 64 64 65 66 69 68 67 66 64 64 65 65 64 64 63 62 61 61 60
37 39 39 41 39 36 38 43 44 43 44 45 46 55 55 58 59 59 60 60 60 61 61 62 62 62 62 63 64 67 67 65 63 64 63 61 60 59 56 53 52 58 53 53
39 35 31 33 41 40 42 43 45 47 49 51 50 58 59 58 56 59 60 60 61 61 61 61 62 61 62 61 61 64 66 65 62 61 59 60 59 58 57 56 53 45 44 43
Lifted_Index
6 5 4 2 -0 -1 -1 -1 -1 -2 -2 -1 -0 0 0 1 1 0 -1 -1 -2 -2 -2 -2 -2 -2 -2 -2 -3 -3 -4 -4 -4 -4 -4 -3 -3 -3 -3 -4 -4 -4 -5 -5
5 4 3 1 -0 -1 -1 -1 -1 -2 -2 -2 -1 -1 -0 0 0 -0 -0 -1 -1 -1 -2 -2 -2 -2 -2 -3 -3 -4 -4 -4 -4 -5 -4 -4 -3 -3 -3 -4 -4 -4 -5 -5
3 2 2 1 1 0 -1 -1 -2 -2 -2 -2 -2 -1 -1 -0 0 -0 -0 -0 -1 -1 -2 -2 -2 -2 -3 -3 -3 -4 -5 -5 -4 -5 -5 -4 -3 -3 -3 -3 -4 -4 -4 -4
2 2 2 2 2 1 -0 -1 -1 -2 -2 -2 -2 -2 -1 -1 -0 -0 0 0 -0 -1 -1 -1 -1 -2 -3 -3 -4 -4 -5 -5 -4 -4 -4 -4 -3 -3 -3 -4 -4 -4 -4 -5
2 2 3 3 2 1 0 -0 -1 -1 -1 -2 -2 -2 -2 -1 -1 -1 0 1 0 -0 -0 -1 -1 -1 -2 -3 -3 -4 -4 -4 -4 -4 -4 -4 -3 -3 -4 -4 -4 -5 -5 -5
3 3 3 3 2 2 1 0 0 -0 -1 -1 -1 -2 -2 -2 -1 -1 -0 0 1 0 0 -1 -1 -1 -2 -3 -3 -4 -4 -4 -4 -4 -4 -4 -3 -3 -3 -3 -4 -4 -5 -5
2 2 3 3 2 2 2 1 1 -0 -1 -1 -1 -2 -2 -2 -2 -1 -1 0 0 0 -0 -1 -1 -1 -2 -3 -3 -4 -4 -4 -4 -4 -4 -4 -4 -3 -3 -3 -3 -4 -5 -5
0 1 2 2 2 1 1 1 0 -0 -1 -1 -1 -1 -2 -2 -2 -1 -0 -0 -0 -0 -1 -1 -1 -1 -2 -2 -3 -4 -5 -5 -4 -4 -4 -4 -4 -3 -3 -3 -3 -4 -4 -5
-0 -0 0 1 2 1 1 0 -0 -0 -1 -1 -1 -1 -1 -2 -2 -1 -0 -0 -1 -1 -1 -1 -1 -1 -1 -2 -3 -4 -5 -5 -4 -4 -4 -4 -4 -4 -4 -4 -4 -4 -4 -5
1 0 -0 0 1 1 1 0 0 -0 -1 -1 -1 -1 -1 -2 -2 -2 -1 -1 -1 -1 -1 -1 -1 -1 -1 -1 -3 -4 -4 -5 -4 -4 -4 -4 -4 -4 -5 -5 -4 -4 -4 -4
2 1 -0 0 1 1 0 0 0 -0 -1 -1 -2 -1 -1 -1 -2 -2 -1 -1 -1 -1 -2 -1 -1 -1 -1 -1 -2 -3 -4 -5 -5 -4 -4 -4 -4 -4 -5 -5 -4 -5 -5 -5
2 1 0 -0 -0 0 0 0 0 -0 -1 -1 -1 -1 0 0 -1 -2 -2 -1 -1 -2 -2 -2 -2 -1 -1 -2 -2 -3 -4 -4 -4 -4 -4 -4 -5 -5 -5 -5 -5 -5 -5 -5
2 2 1 0 -0 -0 -0 -0 -0 -1 -1 -1 -0 0 1 0 -2 -2 -2 -2 -1 -1 -2 -2 -2 -1 -1 -2 -2 -3 -4 -4 -4 -4 -5 -5 -5 -5 -5 -5 -5 -5 -5 -6
3 2 2 1 0 0 -0 -0 -0 -0 -1 -0 0 0 1 -0 -2 -3 -3 -2 -1 0 0 -0 -1 -1 -2 -2 -2 -2 -3 -4 -4 -5 -5 -5 -5 -5 -5 -5 -5 -5 -5 -6
3 3 2 2 2 1 1 0 -0 -0 -0 -0 0 0 0 -0 -2 -4 -4 -3 -1 1 2 1 -0 -1 -2 -2 -2 -3 -4 -4 -4 -5 -5 -5 -5 -5 -5 -5 -5 -5 -5 -6
3 2 2 3 3 2 2 1 0 -0 -0 -0 0 -0 -1 -1 -3 -5 -6 -5 -3 -0 1 1 0 -1 -2 -2 -2 -3 -4 -5 -5 -5 -5 -6 -6 -6 -6 -5 -5 -5 -6 -6
2 2 2 3 3 2 2 1 0 -0 -0 -0 -1 -1 -1 -1 -2 -4 -6 -6 -4 -3 -1 -1 -1 -1 -2 -3 -3 -3 -5 -6 -5 -5 -5 -6 -6 -6 -6 -6 -6 -6 -6 -6
2 2 2 2 2 2 1 -0 -1 -1 -1 -1 -1 -1 -1 -1 -2 -3 -5 -5 -4 -3 -3 -2 -3 -3 -3 -3 -4 -5 -5 -6 -5 -5 -5 -6 -6 -6 -6 -6 -6 -6 -6 -6
2 2 2 2 1 0 -0 -1 -1 -1 -1 -1 -1 -1 -0 -1 -2 -3 -4 -4 -4 -3 -3 -3 -4 -5 -5 -5 -5 -6 -6 -5 -5 -5 -5 -5 -6 -6 -6 -6 -6 -6 -5 -5
1 1 1 1 1 -0 -1 -1 -1 -1 -1 -2 -2 -2 -1 -1 -3 -4 -5 -5 -4 -4 -3 -4 -5 -5 -5 -5 -5 -4 -4 -5 -5 -4 -4 -5 -5 -5 -5 -5 -5 -5 -4 -4
0 0 0 0 -0 -1 -2 -1 -1 -1 -2 -2 -3 -3 -2 -2 -3 -4 -5 -5 -4 -4 -4 -4 -5 -6 -6 -6 -5 -3 -3 -3 -3 -3 -3 -4 -4 -4 -4 -4 -3 -3 -3 -2
-0 -0 -0 -0 -1 -1 -1 -1 -1 -1 -1 -2 -3 -3 -3 -2 -3 -4 -5 -4 -4 -4 -5 -5 -5 -5 -6 -6 -5 -4 -3 -2 -2 -2 -2 -3 -2 -2 -2 -2 -1 -1 -1 -1
-0 -0 -0 -0 -0 -1 -1 -0 -0 -1 -0 -1 -2 -3 -2 -2 -3 -4 -4 -3 -4 -4 -4 -5 -5 -5 -6 -6 -6 -5 -4 -3 -2 -2 -2 -2 -1 -1 -1 -1 -0 0 1 1
-0 -0 -0 -0 0 0 0 -0 -0 -0 -0 -0 -1 -2 -2 -3 -4 -4 -4 -3 -3 -4 -4 -4 -4 -5 -5 -5 -5 -5 -4 -3 -3 -2 -2 -1 -1 -1 -1 -1 0 1 2 2
-1 -1 -0 -0 -0 0 -0 -1 -1 -1 -1 -1 -2 -3 -2 -2 -4 -5 -4 -2 -2 -3 -3 -3 -3 -3 -4 -4 -3 -3 -3 -3 -3 -2 -2 -2 -2 -2 -1 -1 0 1 2 2
-1 -1 -0 -0 -0 -0 -0 -1 -2 -2 -2 -2 -3 -3 -2 -2 -3 -5 -4 -2 -2 -3 -3 -3 -3 -3 -3 -3 -3 -3 -3 -2 -2 -2 -2 -2 -2 -2 -1 -1 0 1 1 1